Weather History for Kansas City International, MO

Change the Weather History Date:

Sunday, March 10, 2013

  Actual Average Record
Temperature  
Mean Temperature 40 °F 42 °F  
Max Temperature 52 °F 53 °F 84 °F (1967)
Min Temperature 27 °F 31 °F 1 °F (1948)
Degree Days  
Heating Degree Days 25 23  
Month to date heating degree days 297 247  
Since 1 July heating degree days 4029 4292  
Cooling Degree Days 0 0  
Month to date cooling degree days 0 0  
Year to date cooling degree days 0 0  
Moisture  
Dew Point 38 °F    
Average Humidity 91    
Maximum Humidity 100    
Minimum Humidity 81    
Precipitation  
Precipitation 0.01 in 0.07 in 1.34 in (1901)
Month to date precipitation 1.11 0.66  
Year to date precipitation 4.00 3.19  
Snow  
Snow T in 0.10 in 6.00 in (1901)
Month to date snowfall T 0.9  
Since 1 July snowfall 25.2 17.1  
Snow Depth 0.00 in    
Sea Level Pressure  
Sea Level Pressure 29.70 in    
Wind  
Wind Speed 12 mph (NW)    
Max Wind Speed 24 mph    
Max Gust Speed 31 mph    
Visibility 4 miles    
Events Fog , Rain , Snow , Thunderstorm    
T = Trace of Precipitation, MM = Missing Value Source: NWS Daily Summary

Daily Weather History Graph

Daily Weather History Graph

Search for Another Location

Airport:

Trip Planner

Search our weather history database for the weather conditions in past years. The results will help you decide how hot, cold, wet, or windy it might be!

Date:

Astronomy

Mar. 10, 2013 Rise Set
Actual Time 7:37 AM CDT 7:21 PM CDT
Civil Twilight 7:10 AM CDT 7:47 PM CDT
Nautical Twilight 6:39 AM CDT 8:18 PM CDT
Astronomical Twilight 6:08 AM CDT 8:50 PM CDT
Moon 6:37 AM CDT (3/10) 6:29 PM CDT (3/10)
Length of Visible Light 12h 36m
Length of Day
11h 43m
Waning Crescent, 2% of the Moon is Illuminated
Mar 10
Waning Crescent
Mar 11
New
Mar 19
First Quarter
Mar 27
Full
Apr 2
Last Quarter

Hourly Weather History & Observations

Time (CDT) Temp. Windchill Dew Point Humidity Pressure Visibility Wind Dir Wind Speed Gust Speed Precip Events Conditions
12:24 AM 51.8 °F - 51.8 °F 100% 29.62 in 0.2 mi Calm Calm - N/A Fog Fog
12:35 AM 50.0 °F - 50.0 °F 100% 29.61 in 0.2 mi Calm Calm - N/A Fog Fog
12:53 AM 48.9 °F - 48.9 °F 100% 29.60 in 0.2 mi SSE 6.9 mph - N/A Fog Fog
1:53 AM 48.0 °F - 46.9 °F 96% 29.60 in 0.2 mi ENE 4.6 mph - N/A Fog Fog
3:53 AM 48.0 °F - 48.0 °F 100% 29.60 in 0.2 mi SSE 5.8 mph - N/A Fog Fog
4:08 AM 48.2 °F - 48.2 °F 100% 29.59 in 0.2 mi South 3.5 mph - N/A Fog Fog
4:53 AM 50.0 °F - 50.0 °F 100% 29.56 in 0.2 mi Calm Calm - N/A Fog Fog
5:01 AM 48.2 °F - 48.2 °F 100% 29.56 in 1.0 mi Calm Calm - N/A   Overcast
5:08 AM 48.2 °F - 48.2 °F 100% 29.56 in 1.2 mi SSE 3.5 mph - N/A   Overcast
5:26 AM 50.0 °F - 48.2 °F 94% 29.62 in 2.5 mi SW 8.1 mph - N/A   Overcast
5:34 AM 51.8 °F - 50.0 °F 94% 29.62 in 5.0 mi SSW 10.4 mph - N/A   Overcast
5:53 AM 51.1 °F - 50.0 °F 96% 29.61 in 6.0 mi SSW 9.2 mph - N/A   Overcast
6:18 AM 50.0 °F - 48.2 °F 94% 29.61 in 7.0 mi SSW 8.1 mph - N/A   Mostly Cloudy
6:31 AM 50.0 °F - 48.2 °F 94% 29.61 in 2.0 mi Variable 6.9 mph - N/A   Mostly Cloudy
6:35 AM 48.2 °F - 46.4 °F 93% 29.62 in 0.8 mi NW 16.1 mph - N/A   Overcast
7:08 AM 44.6 °F 40.7 °F 42.8 °F 93% 29.62 in 0.5 mi NW 6.9 mph - N/A Fog Fog
7:53 AM 42.1 °F - 41.0 °F 96% 29.66 in 0.8 mi Calm Calm - N/A   Mist
8:02 AM 42.8 °F 38.0 °F 39.2 °F 87% 29.64 in 1.0 mi North 8.1 mph - N/A   Mist
8:53 AM 42.1 °F 37.1 °F 39.9 °F 92% 29.65 in 0.8 mi NNW 8.1 mph - N/A   Overcast
9:53 AM 39.9 °F 32.1 °F 39.0 °F 97% 29.69 in 4.0 mi North 13.8 mph - N/A   Overcast
10:11 AM 39.2 °F 31.6 °F 37.4 °F 93% 29.66 in 2.0 mi North 12.7 mph - N/A   Overcast
10:44 AM 37.4 °F 28.2 °F 35.6 °F 93% 29.68 in 2.0 mi North 16.1 mph - N/A Thunderstorm Overcast
10:53 AM 37.9 °F 28.9 °F 36.0 °F 93% 29.68 in 2.0 mi North 16.1 mph - N/A   Overcast
11:53 AM 37.9 °F 29.2 °F 36.0 °F 93% 29.69 in 2.0 mi North 15.0 mph - 0.00 in Rain Light Rain
12:53 PM 37.0 °F 28.5 °F 35.1 °F 93% 29.68 in 2.0 mi NNW 13.8 mph - 0.00 in   Overcast
1:53 PM 37.0 °F 27.7 °F 35.1 °F 93% 29.68 in 2.0 mi NNW 16.1 mph 24.2 mph N/A   Overcast
2:09 PM 37.4 °F 28.5 °F 35.6 °F 93% 29.68 in 7.0 mi NNW 15.0 mph - N/A   Overcast
2:53 PM 37.0 °F 27.7 °F 34.0 °F 89% 29.69 in 6.0 mi NNW 16.1 mph 26.5 mph N/A   Overcast
3:01 PM 37.4 °F 28.9 °F 33.8 °F 87% 29.68 in 3.0 mi NW 13.8 mph 25.3 mph 0.00 in   Light Drizzle
3:30 PM 35.6 °F 25.9 °F 33.8 °F 93% 29.70 in 2.0 mi NW 16.1 mph - 0.00 in   Light Drizzle
3:53 PM 34.0 °F 23.4 °F 33.1 °F 96% 29.73 in 2.0 mi NW 17.3 mph 25.3 mph 0.01 in   Light Drizzle
4:53 PM 32.0 °F 20.8 °F 30.9 °F 96% 29.76 in 2.0 mi NW 17.3 mph 21.9 mph 0.00 in   Light Drizzle
5:23 PM 30.2 °F 18.9 °F 30.2 °F 100% 29.76 in 3.0 mi NW 16.1 mph 25.3 mph 0.00 in   Light Freezing Rain
5:34 PM 30.2 °F 18.5 °F 30.2 °F 100% 29.76 in 3.0 mi NW 17.3 mph 25.3 mph 0.00 in   Light Freezing Rain
5:53 PM 30.9 °F 18.1 °F 28.9 °F 92% 29.78 in 6.0 mi NNW 21.9 mph 28.8 mph 0.00 in   Light Freezing Rain
6:53 PM 30.9 °F 19.4 °F 28.9 °F 92% 29.81 in 6.0 mi NNW 17.3 mph 28.8 mph 0.00 in Snow Light Snow
7:53 PM 30.0 °F 19.1 °F 27.0 °F 88% 29.84 in 8.0 mi NW 15.0 mph 23.0 mph 0.00 in Snow Light Snow
8:53 PM 30.0 °F 18.7 °F 26.1 °F 85% 29.86 in 9.0 mi NW 16.1 mph 23.0 mph 0.00 in Snow Light Snow
9:53 PM 28.0 °F 17.5 °F 25.0 °F 88% 29.87 in 10.0 mi NW 12.7 mph 23.0 mph 0.00 in   Overcast
10:53 PM 27.0 °F 14.3 °F 23.0 °F 85% 29.89 in 10.0 mi NW 17.3 mph 21.9 mph N/A   Overcast
11:53 PM 27.0 °F 16.1 °F 21.9 °F 81% 29.90 in 10.0 mi WNW 12.7 mph 19.6 mph N/A   Overcast
12:53 AM 27.0 °F 16.7 °F 21.9 °F 81% 29.90 in 10.0 mi NW 11.5 mph - N/A   Overcast